Regional Weather Roundup
Issued by NWS

Home | Current Version | Previous Version | Graphics & Text | Print | Product List | Glossary On
Versions: 1 2 3 4 5 6 7 8 9 10 11 12 13 14 15 16 17 18 19 20 21 22 23 24 25 26 27 28 29 30 31 32 33 34 35 36 37 38 39 40 41 42 43 44 45 46 47 48 49 50
000
ASUS43 KLSX 090510
RWRMO

WEATHER SUMMARY FOR MISSOURI
NATIONAL WEATHER SERVICE SPRINGFIELD MO
1100 PM CST MON FEB 08 2016

NOTE: "FAIR" INDICATES FEW OR NO CLOUDS BELOW 12,000 FEET WITH NO
       SIGNIFICANT WEATHER AND/OR OBSTRUCTIONS TO VISIBILITY.
       CURRENT SKY AND/OR WEATHER CONDITIONS ARE NOT AVAILABLE FOR
       CHILLICOTHE AND FARMINGTON.

MOZ001>031-035>038-043-044-053-054-090600-
...NORTHERN AND WESTERN MISSOURI...

CITY           SKY/WX    TMP DP  RH WIND       PRES   REMARKS
KANSAS CTY INT CLOUDY    25  17  72 NW6       30.06F WCI  18
KANSAS C DTWN  PTCLDY    28  17  63 CALM      30.08F
LEE`S SUMMIT   CLEAR     27  16  63 NW12      30.06F WCI  17
ST JOSEPH      CLOUDY    27  18  69 NW8       30.08S WCI  19
CHILLICOTHE      N/A     23  13  65 NW13G22   30.03F WCI  11
KIRKSVILLE     LGT SNOW  20  11  68 NW13      29.96F WCI   7

$$
MOZ066>068-077>081-088>096-101>105-090600-
...SOUTHWEST MISSOURI...

CITY           SKY/WX    TMP DP  RH WIND       PRES   REMARKS
SPRINGFIELD    PTCLDY    29  14  53 NW14G22   30.02F WCI  18
JOPLIN         PTCLDY    30  15  53 W9        30.12S WCI  22

$$
MOZ032>034-039>042-045>050-055>058-069>072-090600-
...CENTRAL MISSOURI...

CITY           SKY/WX    TMP DP  RH WIND       PRES   REMARKS
COLUMBIA       CLOUDY    23  13  65 NW16      29.97F WCI  10
JEFFERSON CITY CLOUDY    25  13  60 NW12      30.00F WCI  14
ROLLA          CLOUDY    22  14  71 NW14      29.93F WCI   9
SEDALIA        CLOUDY    26  14  60 NW22G30   30.03S WCI  12
WHITEMAN AFB   MOCLDY    25  14  63 NW15G25   30.02F WCI  12
WARRENSBURG    CLEAR     27  18  69 NW16G24   30.05F WCI  14
OSAGE BEACH    CLOUDY    27  12  54 W9G18     29.99F WCI  17

$$
MOZ051-052-059>065-090600-
...EAST CENTRAL MISSOURI...

CITY           SKY/WX    TMP DP  RH WIND       PRES   REMARKS
ST LOUIS INTL  FLURRIES  24  11  57 NW13G22   29.92F WCI  12
SPIRIT OF STL  CLOUDY    23  12  62 W18       29.94F WCI   9
ST CHARLES     CLOUDY    22  11  62 NW17G28   29.93F WCI   8

$$
MOZ072>076-082>087-097>100-106>115-090600-
...SOUTH CENTRAL AND SOUTHEAST MISSOURI...

CITY           SKY/WX    TMP DP  RH WIND       PRES   REMARKS
CAPE GIRARDEAU CLOUDY    28  14  55 NW13      29.94F WCI  17
FARMINGTON     FLURRIES  24  13  62 NW15G21   29.91F WCI  11
POPLAR BLUFF   CLOUDY    30  16  56 NW16G24   29.95F WCI  19
WEST PLAINS    CLOUDY    27  17  66 NW12      29.97F WCI  17

$$



USA.gov is the U.S. government's official web portal to all federal, state and local government web resources and services.